[[{"header":{"parameterUnit":"m.s-1","parameterCategory":1,"la1":30.2991,"la2":30.254,"lo1":-89.0895,"lo2":-89.0444,"dy":0.0017,"dx":0.0017,"nx":28,"ny":28,"refTime":"2024-08-18T09:00:00:Z","depth":0,"parameterNumber":2,"parameterNumberName":"U-component_of_WINDS"},"data":[0,0,0,0,0,0,0,0,0,0,0,0,0,0,0,0,0,0,0,0,0,0,0,0,0,0,0,0,0,0,0,0,0,0,0,0,0,0,0,0,0,0,0,0,0,0,0,0,0,0,0,0,0,0,0,0,0,0,2.7687,2.7687,0,2.7699,2.7699,2.7699,2.7618,2.7616,2.7613,2.7611,2.7625,2.7627,2.763,0,0,0,0,0,0,0,0,0,0,0,0,0,2.7596,2.7598,2.7687,2.7687,2.7687,2.7699,2.7699,2.7699,2.7618,2.7616,2.7613,2.761,2.7624,2.7627,2.763,0,0,0,0,0,0,0,0,0,0,0,0,0,2.7625,2.7599,2.7687,2.7648,2.7645,2.7699,2.7699,2.7699,2.7619,2.7616,2.7612,2.7609,2.7623,2.7627,2.763,2.7722,0,0,2.7642,2.7643,0,0,0,0,0,0,0,0,2.7623,2.7628,2.7654,2.7651,2.7647,2.7653,2.7672,2.7707,2.762,2.7629,2.7611,2.7607,2.7637,2.7639,2.7649,2.7723,2.7723,2.7642,2.7644,2.7646,2.7647,0,0,0,0,0,0,0,2.7621,2.7627,2.7691,2.7654,2.765,2.7631,2.7631,2.7678,2.7652,2.7628,2.7622,2.7624,2.7635,2.7646,2.7649,2.7724,2.7642,2.7645,2.7648,2.7649,2.7876,2.788,0,0,0,0,0,0,2.7624,2.7626,2.7691,2.7692,2.7626,2.7636,2.7636,2.7655,2.7651,2.7648,2.7627,2.7621,2.7641,2.7645,2.7649,2.7759,2.7646,2.7649,2.7652,2.7873,2.7877,2.7881,0,0,0,0,0,0,2.7623,2.7631,2.7691,2.7657,2.7663,2.7641,2.7663,2.7657,2.7668,2.7651,2.7646,2.7644,2.7639,2.7644,2.7705,2.7758,2.7651,2.7654,2.7868,2.7874,2.7879,2.7978,0,0,0,0,0,0,2.762,2.7631,2.7664,2.7659,2.7666,2.7746,2.7666,2.766,2.7675,2.7666,2.7665,2.7661,2.7636,2.77,2.7709,2.7761,2.7657,2.7863,2.7871,2.7877,2.7969,2.7986,2.8,0,0,0,0,0,2.7617,2.7691,2.7667,2.7675,2.7707,2.7749,2.7753,2.7722,2.7679,2.7714,2.7703,2.7661,2.7751,2.7707,2.7716,2.7771,2.786,2.7869,2.7877,2.7963,2.7983,2.8,0,0,0,0,0,0,2.7703,2.769,2.7662,2.7736,2.7745,2.7735,2.7778,2.7744,2.7765,2.7756,2.7717,2.7718,2.7787,2.7784,2.7736,2.7861,2.7798,2.7809,2.786,2.7879,2.7894,2.7893,2.7661,0,0,0,0,0,2.7731,2.7765,2.7752,2.7818,2.7824,2.7801,2.7818,2.7794,2.7801,2.7804,2.7797,2.7807,2.7837,2.7857,2.7884,2.7969,2.7969,2.8011,2.8026,2.8038,2.8049,2.8096,2.8115,2.7909,2.7909,2.7909,0,0,2.7788,2.7785,2.7809,2.7836,2.7839,2.7877,2.7804,2.7846,2.7874,2.781,2.7868,2.7864,2.7872,2.7946,2.7979,2.7947,2.8106,2.8049,2.806,2.8063,2.8107,2.8126,2.8144,2.7915,2.7914,2.7913,0,0,2.7913,2.7913,2.797,2.7975,2.7982,2.7966,2.798,2.7977,2.7972,2.8029,2.7983,2.8016,2.8068,2.8076,2.8087,2.8218,2.8181,2.8228,2.8308,2.8354,2.8371,2.8385,2.8434,2.8451,2.8238,2.8238,2.8238,0,2.7983,2.8038,2.8003,2.805,2.8064,2.8008,2.8066,2.8073,2.8089,2.81,2.8064,2.8131,2.8131,2.8208,2.8241,2.825,2.8267,2.8228,2.8371,2.8385,2.8398,2.8444,2.8462,2.8244,2.8243,2.8243,2.8242,0,2.8125,2.8164,2.8209,2.8226,2.8245,2.8298,2.8273,2.8296,2.8271,2.826,2.8321,2.8321,2.8348,2.8364,2.8339,2.8438,2.8418,2.8377,2.8313,2.8424,2.8467,2.8484,2.8252,2.825,2.8248,2.8247,0,0,2.8303,2.8302,2.832,2.8328,2.8332,2.8362,2.8413,2.8439,2.8462,2.8474,2.8517,2.8564,2.8527,2.854,2.8516,2.8557,2.8663,2.8511,2.851,2.8541,2.8775,2.8807,2.8828,2.8639,2.8642,2.8644,2.8775,0,2.8426,2.8512,2.8484,2.8572,2.8609,2.8558,2.8602,2.8611,2.8602,2.8633,2.8623,2.8658,2.8605,2.8613,2.8651,2.8642,2.871,2.8632,2.868,2.8682,2.8681,2.885,2.8884,2.9007,2.8792,2.8794,2.8796,0,2.8581,2.8601,2.8693,2.8694,2.8708,2.8749,2.8772,2.8802,2.8811,2.8802,2.8818,2.8786,2.8838,2.8773,2.8845,2.8793,2.881,2.881,2.8814,2.8818,2.8747,2.8861,2.9046,2.9065,2.8822,2.882,2.8818,0,2.8704,2.8754,2.8817,2.8825,2.8827,2.8857,2.8859,2.8865,2.8884,2.8905,2.8917,2.8943,2.8958,2.898,2.8957,2.8912,2.9034,2.8966,2.9029,2.903,2.9058,2.9057,2.925,2.9067,2.9067,2.9066,2.9066,0,2.8846,2.8904,2.8873,2.8911,2.8976,2.8944,2.901,2.9006,2.9012,2.905,2.9007,2.9044,2.901,2.9045,2.9027,2.9091,2.9097,2.9093,2.9088,2.9098,2.9099,2.911,2.9101,2.9071,2.907,2.9069,2.9068,0,2.8995,2.8975,2.904,2.9037,2.9038,2.9087,2.9084,2.9121,2.9109,2.9158,2.9168,2.9151,2.9189,2.9168,2.9207,2.9196,2.9279,2.9261,2.9276,2.9272,2.9337,2.9332,2.9545,2.9573,2.9371,2.9372,2.9374,0,2.9087,2.9131,2.9134,2.9156,2.9161,2.9198,2.9217,2.9188,2.921,2.9226,2.9261,2.9295,2.9322,2.9386,2.9377,2.9408,2.9392,2.9464,2.9396,2.9406,2.9396,2.9394,2.94,2.9479,2.9481,2.9483,2.9485,0,2.9253,2.9242,2.9272,2.9299,2.9324,2.9343,2.936,2.9381,2.9352,2.9379,2.9418,2.9439,2.948,2.9516,2.9543,2.9546,2.9512,2.9506,2.9523,2.9534,2.9542,2.9541,2.9316,2.9502,2.95,2.9499,2.9498,2.9497,2.9378,2.9416,2.9425,2.946,2.9469,2.9486,2.9521,2.9515,2.9547,2.9578,2.9559,2.9605,2.9616,2.9648,2.9657,2.9694,2.9665,2.9688,2.9694,2.9701,2.9711,2.9535,2.9698,2.9697,2.9697,2.9697,2.9696,0,2.9544,2.9548,2.958,2.9605,2.9634,2.9598,2.9615,2.9642,2.9683,2.9696,2.9723,2.977,2.9805,2.98,2.9833,2.9863,2.9849,2.9873,2.9871,2.9873,2.9734,2.9717,2.9885,2.9885,2.9885,2.9885,2.9884,2.9884,2.9634,2.9698,2.9688,2.9757,2.976,2.9805,2.9818,2.9835,2.9845,2.9899,2.9928,2.9924,2.9931,2.9964,2.9995,2.9993,3.0008,3.0039,3.0032,2.9901,2.9883,2.9865,2.9849,3.0042,3.0042,3.0168,3.0169,3.017]},{"header":{"parameterUnit":"m.s-1","parameterCategory":1,"la1":30.2991,"la2":30.254,"lo1":-89.0895,"lo2":-89.0444,"dy":0.0017,"dx":0.0017,"nx":28,"ny":28,"refTime":"2024-08-18T09:00:00:Z","depth":0,"parameterNumber":3,"parameterNumberName":"V-component_of_WINDS"},"data":[0,0,0,0,0,0,0,0,0,0,0,0,0,0,0,0,0,0,0,0,0,0,0,0,0,0,0,0,0,0,0,0,0,0,0,0,0,0,0,0,0,0,0,0,0,0,0,0,0,0,0,0,0,0,0,0,0,0,-3.9193,-3.9193,0,-3.9232,-3.9232,-3.9233,-3.9214,-3.9213,-3.9212,-3.9211,-3.9247,-3.9249,-3.9251,0,0,0,0,0,0,0,0,0,0,0,0,0,-3.91,-3.9102,-3.9193,-3.9193,-3.9194,-3.9232,-3.9232,-3.9233,-3.9214,-3.9213,-3.9212,-3.921,-3.9246,-3.9249,-3.9251,0,0,0,0,0,0,0,0,0,0,0,0,0,-3.914,-3.9102,-3.9193,-3.9189,-3.9189,-3.9232,-3.9232,-3.9233,-3.9214,-3.9213,-3.9211,-3.921,-3.9246,-3.9248,-3.9251,-3.9298,0,0,-3.926,-3.9261,0,0,0,0,0,0,0,0,-3.9138,-3.9143,-3.9189,-3.9189,-3.919,-3.9217,-3.9213,-3.9255,-3.9215,-3.9205,-3.9211,-3.9209,-3.9238,-3.9241,-3.9252,-3.93,-3.9301,-3.926,-3.9262,-3.9263,-3.9264,0,0,0,0,0,0,0,-3.9135,-3.9141,-3.9208,-3.919,-3.919,-3.9185,-3.9189,-3.9221,-3.9229,-3.9205,-3.9204,-3.9209,-3.9238,-3.9249,-3.9252,-3.9302,-3.926,-3.9262,-3.9264,-3.9265,-3.9393,-3.9395,0,0,0,0,0,0,-3.9133,-3.9139,-3.9207,-3.9209,-3.916,-3.9188,-3.9192,-3.9209,-3.9229,-3.923,-3.921,-3.9208,-3.9245,-3.9249,-3.9254,-3.9311,-3.9263,-3.9266,-3.9267,-3.9391,-3.9393,-3.9395,0,0,0,0,0,0,-3.9131,-3.9139,-3.9205,-3.9174,-3.9182,-3.9191,-3.921,-3.9211,-3.9222,-3.9232,-3.9233,-3.9221,-3.9244,-3.925,-3.9288,-3.9312,-3.9267,-3.9269,-3.9389,-3.9392,-3.9394,-3.9426,0,0,0,0,0,0,-3.9128,-3.9138,-3.9157,-3.9175,-3.9184,-3.924,-3.9212,-3.9213,-3.9228,-3.9225,-3.9242,-3.9244,-3.9243,-3.9284,-3.9291,-3.9315,-3.9272,-3.9387,-3.939,-3.9393,-3.9423,-3.943,-3.9435,0,0,0,0,0,-3.9125,-3.9163,-3.9158,-3.9166,-3.9207,-3.9241,-3.9246,-3.9246,-3.923,-3.9248,-3.9255,-3.9243,-3.9309,-3.9288,-3.9296,-3.9321,-3.9386,-3.9389,-3.9393,-3.942,-3.9428,-3.9435,0,0,0,0,0,0,-3.9145,-3.9165,-3.9159,-3.9204,-3.9222,-3.9238,-3.9261,-3.9254,-3.9275,-3.9272,-3.9269,-3.9273,-3.9314,-3.9321,-3.9298,-3.9369,-3.9344,-3.935,-3.9363,-3.937,-3.9376,-3.9373,-3.9274,0,0,0,0,0,-3.9155,-3.9182,-3.9198,-3.9236,-3.9245,-3.9252,-3.9267,-3.9265,-3.9282,-3.9289,-3.9298,-3.9315,-3.9339,-3.9355,-3.9378,-3.9424,-3.9428,-3.9446,-3.9452,-3.9457,-3.9461,-3.9488,-3.9497,-3.9408,-3.9408,-3.9408,0,0,-3.9176,-3.919,-3.9207,-3.9241,-3.9254,-3.9281,-3.9258,-3.9287,-3.9308,-3.9293,-3.9331,-3.9338,-3.9356,-3.94,-3.9419,-3.9407,-3.9487,-3.9462,-3.9465,-3.9468,-3.9493,-3.9501,-3.9509,-3.941,-3.941,-3.9409,0,0,-3.9227,-3.924,-3.9275,-3.9289,-3.931,-3.9315,-3.9323,-3.9341,-3.9347,-3.9385,-3.9375,-3.9398,-3.944,-3.9454,-3.9466,-3.9526,-3.9516,-3.9533,-3.9565,-3.9591,-3.9598,-3.9604,-3.9626,-3.9634,-3.9538,-3.9538,-3.9538,0,-3.9249,-3.9292,-3.9293,-3.9325,-3.934,-3.933,-3.9365,-3.9378,-3.9405,-3.9415,-3.9402,-3.9456,-3.9467,-3.9514,-3.9529,-3.9539,-3.9549,-3.9531,-3.9597,-3.9603,-3.9609,-3.963,-3.9638,-3.954,-3.954,-3.954,-3.954,0,-3.9319,-3.9349,-3.9374,-3.9402,-3.9421,-3.9453,-3.9459,-3.9477,-3.9475,-3.9481,-3.9521,-3.9534,-3.956,-3.9571,-3.9568,-3.9619,-3.9611,-3.9597,-3.9573,-3.962,-3.964,-3.9647,-3.9543,-3.9542,-3.9542,-3.9541,0,0,-3.9383,-3.9414,-3.9423,-3.9437,-3.946,-3.9483,-3.9515,-3.9543,-3.9559,-3.9578,-3.9606,-3.9643,-3.9631,-3.9646,-3.9644,-3.9667,-3.9715,-3.9651,-3.9651,-3.9663,-3.9773,-3.9783,-3.9792,-3.9709,-3.971,-3.9712,-3.9771,0,-3.9437,-3.9496,-3.9499,-3.9552,-3.958,-3.9572,-3.9601,-3.9618,-3.9625,-3.9649,-3.9656,-3.9683,-3.9665,-3.9674,-3.9697,-3.9704,-3.9737,-3.97,-3.9734,-3.9736,-3.9731,-3.9803,-3.9813,-3.9869,-3.9779,-3.978,-3.9781,0,-3.9507,-3.9531,-3.9588,-3.961,-3.9622,-3.9648,-3.9674,-3.9698,-3.9718,-3.9721,-3.9739,-3.9734,-3.9768,-3.9743,-3.9789,-3.9764,-3.9778,-3.9784,-3.9787,-3.979,-3.9761,-3.9808,-3.9886,-3.9895,-3.9793,-3.9792,-3.9792,0,-3.9549,-3.9596,-3.9637,-3.9648,-3.9674,-3.9693,-3.9705,-3.9723,-3.974,-3.9763,-3.9774,-3.98,-3.9814,-3.9834,-3.9837,-3.9818,-3.9884,-3.9859,-3.9888,-3.9888,-3.9902,-3.9901,-3.9984,-3.991,-3.991,-3.991,-3.991,0,-3.961,-3.9645,-3.9656,-3.9681,-3.9721,-3.9724,-3.9763,-3.9773,-3.979,-3.9816,-3.981,-3.9835,-3.9837,-3.9863,-3.9865,-3.9904,-3.991,-3.9914,-3.9914,-3.9915,-3.9914,-3.9924,-3.992,-3.9912,-3.9912,-3.9911,-3.9911,0,-3.9663,-3.9672,-3.9716,-3.9738,-3.9745,-3.9773,-3.9792,-3.9816,-3.9823,-3.9857,-3.9865,-3.9876,-3.9906,-3.9911,-3.9945,-3.9947,-3.9994,-3.999,-3.9988,-3.9987,-4.0016,-4.0014,-4.0109,-4.0122,-4.0039,-4.004,-4.0041,0,-3.9701,-3.9728,-3.9755,-3.9773,-3.9786,-3.9815,-3.9833,-3.9838,-3.9857,-3.9883,-3.9904,-3.9934,-3.9958,-4.0006,-4.0016,-4.0043,-4.004,-4.0072,-4.0044,-4.0044,-4.0042,-4.004,-4.0043,-4.0077,-4.0078,-4.0078,-4.0079,0,-3.9768,-3.9772,-3.9799,-3.9829,-3.9851,-3.9874,-3.9896,-3.9911,-3.9918,-3.994,-3.9971,-3.999,-4.0027,-4.0057,-4.0084,-4.0095,-4.0089,-4.0088,-4.0096,-4.0097,-4.0095,-4.0098,-4.0003,-4.0085,-4.0085,-4.0084,-4.0084,-4.0084,-3.9815,-3.984,-3.9863,-3.9894,-3.9912,-3.9933,-3.9957,-3.9968,-3.9995,-4.0027,-4.0028,-4.0063,-4.0083,-4.012,-4.0133,-4.016,-4.0149,-4.0161,-4.0164,-4.0167,-4.017,-4.0091,-4.0164,-4.0164,-4.0164,-4.0164,-4.0164,0,-3.9882,-3.9897,-3.9926,-3.9958,-3.9983,-3.9977,-4.0001,-4.0022,-4.0053,-4.0074,-4.0098,-4.0136,-4.0165,-4.0179,-4.0208,-4.0227,-4.0225,-4.0234,-4.0233,-4.0236,-4.0177,-4.0168,-4.0236,-4.0236,-4.0236,-4.0236,-4.0236,-4.0236,-3.992,-3.9962,-3.9969,-4.0021,-4.0035,-4.0071,-4.0085,-4.0105,-4.0122,-4.0164,-4.019,-4.0199,-4.0217,-4.0248,-4.0275,-4.0278,-4.0289,-4.03,-4.0302,-4.0247,-4.024,-4.0233,-4.0224,-4.0303,-4.0303,-4.0359,-4.0359,-4.0359]}]]